"startDT [UTC]","vpos","CH4 [ppm]","stdev(CH4) [ppm]","CO2 [ppm]","stdev(CO2) [ppm]","H2O [ppm]","stdev(H2O)","p_LGR [torr]","T_LGR [C]","mt1_LGR [us]","mt2_LGR [us]","T_ECpre [C]","T_EC1 [C]","T_EC2 [C]","p_inlet [hPa]","p_in [hPa]","p_out [hPa]","T_inlet [C]","RH_inlet [%]","dwpt_inlet [C]","T_vent [C]","RH_vent [%]","dwpt_vent [C]","flow_vent [l min-1]","flow_inlet [l min-1]","dwpt_sample [C]","T_room [C]"
2012-08-12 00:00:00,0.0,1.9935,0.0012,387.53,0.36,331.5,30.6,137.95,36.96,24.66,36.49,0.98,18.64,-25.35,-53,560,-929,31.6,25.5,9.4,31.5,1.0,-31.1,5.73,2.27,-26.1,34.8
2012-08-12 00:01:00,0.0,1.9928,0.0013,387.19,0.37,330.8,29.1,137.95,36.95,24.65,36.50,0.98,18.66,-25.34,-53,560,-928,31.6,25.6,9.5,31.5,1.0,-31.0,5.73,2.31,-26.1,34.8
2012-08-12 00:02:00,0.0,1.9928,0.0009,387.62,0.33,335.6,28.5,137.94,36.95,24.66,36.49,0.99,18.68,-25.35,-53,560,-928,31.6,25.4,9.4,31.5,1.0,-31.1,5.73,2.28,-26.1,34.8
2012-08-12 00:03:00,0.0,1.9938,0.0012,387.15,0.34,330.0,27.3,137.95,36.94,24.65,36.49,0.98,18.70,-25.35,-53,560,-928,31.6,25.6,9.5,31.5,1.0,-31.1,5.73,2.27,-26.1,34.8
2012-08-12 00:04:00,0.0,1.9942,0.0010,387.59,0.36,328.6,30.6,137.95,36.94,24.65,36.50,1.01,18.72,-25.34,-53,560,-929,31.6,25.3,9.3,31.5,1.0,-31.0,5.73,2.31,-26.2,34.7
2012-08-12 00:05:00,0.0,1.9943,0.0009,387.78,0.38,335.3,24.2,137.94,36.93,24.65,36.49,0.99,18.73,-25.34,-53,560,-928,31.6,25.3,9.3,31.5,1.0,-31.1,5.73,2.27,-26.2,34.8
2012-08-12 00:06:00,0.0,1.9942,0.0012,387.70,0.37,329.2,25.7,137.95,36.93,24.65,36.50,0.98,18.75,-25.34,-53,560,-928,31.6,25.3,9.3,31.5,1.0,-31.1,5.73,2.29,-26.1,34.8
2012-08-12 00:07:00,0.0,1.9947,0.0010,387.35,0.41,331.2,26.2,137.95,36.92,24.65,36.50,0.99,18.76,-25.34,-53,560,-929,31.6,25.5,9.4,31.5,1.0,-31.1,5.73,2.30,-26.2,34.7
2012-08-12 00:08:00,0.0,1.9960,0.0010,387.13,0.40,340.2,26.1,137.94,36.92,24.65,36.49,0.97,18.78,-25.35,-53,560,-928,31.6,25.7,9.5,31.5,1.0,-31.0,5.73,2.27,-26.1,34.7
2012-08-12 00:09:00,0.0,1.9967,0.0011,387.37,0.36,330.8,28.1,137.95,36.91,24.66,36.49,0.96,18.80,-25.34,-53,560,-928,31.6,25.6,9.5,31.5,1.0,-31.0,5.73,2.30,-26.2,34.7
2012-08-12 00:10:00,0.0,1.9978,0.0009,387.51,0.38,334.8,27.5,137.95,36.91,24.65,36.49,0.96,18.81,-25.34,-53,560,-928,31.5,25.5,9.4,31.5,1.0,-31.1,5.73,2.30,-26.2,34.7
2012-08-12 00:11:00,0.0,1.9982,0.0010,387.62,0.27,336.7,24.3,137.95,36.90,24.65,36.50,0.96,18.82,-25.34,-53,560,-928,31.5,25.4,9.3,31.5,1.0,-31.1,5.73,2.27,-26.1,34.8
2012-08-12 00:12:00,0.0,1.9983,0.0009,387.61,0.36,333.3,25.7,137.95,36.90,24.66,36.49,1.06,18.71,-25.35,-53,560,-928,31.5,25.4,9.3,31.5,1.0,-31.1,5.73,2.31,-26.2,34.8
2012-08-12 00:13:00,0.0,1.9984,0.0009,387.82,0.37,328.5,26.3,137.95,36.89,24.65,36.50,1.24,17.28,-25.35,-53,560,-928,31.5,25.2,9.2,31.5,1.0,-31.1,5.73,2.28,-26.2,34.7
2012-08-12 00:14:00,0.0,1.9984,0.0010,387.56,0.31,336.1,21.1,137.95,36.88,24.65,36.50,1.16,15.06,-25.35,-53,560,-929,31.5,25.3,9.3,31.5,1.0,-31.0,5.73,2.28,-26.2,34.7
2012-08-12 00:15:00,0.0,1.9979,0.0013,387.73,0.35,334.9,24.9,137.94,36.88,24.65,36.50,0.97,12.70,-25.36,-53,560,-928,31.5,25.4,9.3,31.5,1.0,-31.0,5.73,2.31,-26.2,34.7
2012-08-12 00:16:00,0.0,1.9982,0.0010,387.75,0.31,343.2,26.5,137.95,36.88,24.65,36.50,1.09,10.36,-25.38,-53,560,-928,31.5,25.4,9.3,31.5,1.0,-31.1,5.73,2.27,-26.2,34.7
2012-08-12 00:17:00,0.0,1.9982,0.0008,387.59,0.32,329.1,24.4,137.95,36.87,24.65,36.49,1.09,8.13,-25.38,-53,560,-929,31.5,25.5,9.4,31.4,1.0,-31.2,5.73,2.28,-26.2,34.7
2012-08-12 00:18:00,0.0,1.9979,0.0009,387.70,0.39,339.5,22.1,137.94,36.86,24.65,36.50,1.12,6.00,-25.38,-53,560,-928,31.5,25.4,9.3,31.5,1.0,-31.1,5.73,2.31,-26.2,34.7
2012-08-12 00:19:00,0.0,1.9978,0.0012,387.45,0.37,333.7,29.9,137.95,36.86,24.65,36.50,1.05,3.98,-25.37,-53,560,-928,31.5,25.4,9.3,31.5,1.0,-31.0,5.73,2.27,-26.2,34.6
2012-08-12 00:20:00,0.0,1.9974,0.0016,387.38,0.37,336.3,29.3,137.95,36.85,24.65,36.50,1.06,2.05,-25.36,-53,560,-928,31.5,25.6,9.4,31.5,1.0,-31.1,5.73,2.29,-26.2,34.7
2012-08-12 00:21:00,0.0,1.9963,0.0010,387.55,0.33,339.0,29.2,137.95,36.85,24.65,36.50,1.12,0.24,-25.34,-53,560,-928,31.5,25.5,9.4,31.5,1.0,-31.1,5.73,2.30,-26.2,34.8
2012-08-12 00:22:00,0.0,1.9969,0.0013,387.67,0.30,329.5,27.7,137.95,36.84,24.66,36.50,1.06,-1.48,-25.33,-53,560,-928,31.5,25.3,9.3,31.5,1.0,-31.1,5.73,2.27,-26.2,34.7
2012-08-12 00:23:00,0.0,1.9972,0.0008,387.68,0.32,331.6,29.0,137.95,36.84,24.66,36.49,1.02,-3.09,-25.32,-53,560,-928,31.5,25.2,9.2,31.4,1.0,-31.1,5.73,2.30,-26.2,34.7
2012-08-12 00:24:00,0.0,1.9973,0.0009,387.59,0.32,343.2,30.5,137.95,36.84,24.65,36.50,1.11,-4.46,-25.30,-53,560,-928,31.5,25.3,9.3,31.4,1.0,-31.2,5.73,2.28,-26.2,34.7
2012-08-12 00:25:00,0.0,1.9967,0.0011,388.06,0.37,336.7,30.6,137.95,36.83,24.65,36.49,1.11,-4.90,-25.29,-53,560,-928,31.5,25.2,9.2,31.4,1.0,-31.1,5.73,2.27,-26.2,34.7
2012-08-12 00:26:00,0.0,1.9963,0.0010,387.75,0.35,334.4,28.4,137.95,36.82,24.65,36.49,1.03,-6.10,-25.27,-53,560,-929,31.5,25.2,9.2,31.4,1.0,-30.9,5.73,2.31,-26.2,34.7
2012-08-12 00:27:00,0.0,1.9975,0.0010,387.78,0.39,334.6,24.0,137.95,36.82,24.65,36.49,1.07,-7.62,-25.27,-53,560,-928,31.5,25.2,9.2,31.4,1.0,-30.8,5.73,2.28,-26.1,34.7
2012-08-12 00:28:00,0.0,1.9987,0.0011,387.74,0.33,331.3,25.9,137.95,36.81,24.65,36.50,1.13,-8.92,-25.26,-53,560,-928,31.5,25.2,9.2,31.4,1.0,-30.8,5.73,2.28,-26.1,34.7
2012-08-12 00:29:00,0.0,1.9992,0.0011,387.78,0.38,334.5,29.7,137.95,36.81,24.65,36.49,1.03,-10.13,-25.25,-53,560,-928,31.5,25.3,9.2,31.4,1.0,-30.8,5.73,2.30,-26.1,34.6
2012-08-12 00:30:00,0.0,1.9982,0.0009,387.74,0.37,332.3,28.3,137.95,36.80,24.65,36.50,1.02,-11.25,-25.25,-53,560,-928,31.5,25.3,9.2,31.4,1.0,-30.8,5.73,2.28,-26.1,34.7
2012-08-12 00:31:00,0.0,1.9993,0.0009,387.61,0.35,337.0,24.8,137.95,36.79,24.65,36.50,1.11,-12.27,-25.24,-53,560,-928,31.5,25.2,9.2,31.4,1.0,-30.8,5.73,2.28,-26.1,34.7
2012-08-12 00:32:00,0.0,1.9987,0.0014,387.90,0.39,343.9,29.1,137.95,36.79,24.65,36.49,1.09,-13.25,-25.25,-53,560,-928,31.5,25.3,9.2,31.4,1.0,-30.8,5.73,2.30,-26.1,34.6
2012-08-12 00:33:00,0.0,1.9956,0.0009,388.00,0.34,335.5,29.2,137.95,36.79,24.65,36.49,1.01,-14.16,-25.24,-53,560,-928,31.5,25.2,9.2,31.4,1.0,-30.8,5.73,2.27,-26.1,34.6
2012-08-12 00:34:00,0.0,1.9937,0.0015,387.91,0.32,332.9,28.0,137.95,36.78,24.65,36.50,1.05,-15.01,-25.25,-53,560,-929,31.5,25.2,9.2,31.4,1.0,-30.8,5.73,2.29,-26.1,34.6
2012-08-12 00:35:00,0.0,1.9924,0.0011,388.15,0.37,335.2,24.1,137.95,36.78,24.65,36.49,1.12,-15.81,-25.25,-53,560,-928,31.5,25.2,9.2,31.4,1.0,-30.8,5.73,2.29,-26.1,34.6
2012-08-12 00:36:00,0.0,1.9947,0.0010,387.78,0.37,340.9,32.6,137.95,36.78,24.66,36.49,1.06,-16.58,-25.25,-53,560,-928,31.5,25.3,9.2,31.4,1.0,-30.9,5.73,2.27,-26.1,34.6
2012-08-12 00:37:00,0.0,1.9946,0.0010,387.78,0.35,334.7,23.1,137.95,36.78,24.65,36.50,1.01,-17.29,-25.25,-53,560,-928,31.5,25.2,9.1,31.4,1.0,-30.9,5.73,2.30,-26.1,34.6
2012-08-12 00:38:00,0.0,1.9953,0.0009,387.75,0.34,338.0,25.7,137.95,36.78,24.65,36.50,1.05,-17.97,-25.26,-53,560,-928,31.5,25.1,9.1,31.4,1.0,-30.9,5.73,2.29,-26.1,34.5
2012-08-12 00:39:00,0.0,1.9951,0.0011,387.77,0.35,341.6,29.4,137.95,36.77,24.66,36.50,1.10,-18.61,-25.26,-53,560,-928,31.5,25.2,9.2,31.4,1.0,-30.9,5.73,2.27,-26.1,34.6
2012-08-12 00:40:00,0.0,1.9948,0.0011,387.63,0.30,341.6,26.5,137.95,36.77,24.65,36.50,1.06,-19.20,-25.27,-53,560,-928,31.5,25.1,9.1,31.4,1.0,-31.1,5.73,2.30,-26.1,34.6
2012-08-12 00:41:00,0.0,1.9945,0.0009,387.75,0.42,324.4,29.0,137.95,36.76,24.66,36.49,1.00,-19.74,-25.28,-53,560,-928,31.5,25.1,9.1,31.4,1.0,-31.1,5.73,2.28,-26.1,34.6
2012-08-12 00:42:00,0.0,1.9947,0.0009,387.51,0.35,329.0,24.5,137.95,36.75,24.65,36.50,1.05,-20.27,-25.30,-53,560,-928,31.5,25.1,9.1,31.4,1.0,-31.2,5.73,2.28,-26.1,34.5
2012-08-12 00:43:00,0.0,1.9917,0.0014,387.66,0.33,328.6,22.5,137.95,36.74,24.66,36.49,1.11,-20.79,-25.30,-53,560,-928,31.5,25.0,9.0,31.4,1.0,-31.1,5.73,2.30,-26.2,34.5
2012-08-12 00:44:00,0.0,1.9911,0.0009,387.63,0.40,335.6,32.4,137.95,36.74,24.65,36.49,1.06,-21.27,-25.31,-53,560,-928,31.5,24.9,9.0,31.4,1.0,-31.2,5.73,2.27,-26.1,34.5
2012-08-12 00:45:00,0.0,1.9893,0.0014,387.55,0.37,326.6,23.3,137.95,36.73,24.65,36.50,1.01,-21.72,-25.31,-53,560,-928,31.4,24.9,8.9,31.4,1.0,-31.1,5.73,2.29,-26.1,34.6
2012-08-12 00:46:00,0.0,1.9887,0.0011,387.49,0.30,332.4,30.2,137.95,36.73,24.65,36.50,1.03,-22.16,-25.33,-53,560,-928,31.4,24.9,8.9,31.4,1.0,-31.1,5.73,2.30,-26.2,34.6
2012-08-12 00:47:00,0.0,1.9865,0.0017,387.32,0.30,338.0,30.1,137.95,36.73,24.66,36.50,1.09,-22.55,-25.33,-53,560,-928,31.4,24.9,8.9,31.4,1.0,-31.1,5.73,2.27,-26.2,34.6
2012-08-12 00:48:00,0.0,1.9852,0.0012,387.31,0.40,335.8,25.0,137.95,36.73,24.65,36.50,1.08,-22.92,-25.36,-53,560,-928,31.4,24.8,8.9,31.4,1.0,-31.1,5.73,2.29,-26.2,34.5
2012-08-12 00:49:00,0.0,1.9867,0.0011,387.32,0.36,331.2,27.3,137.95,36.73,24.65,36.50,1.02,-23.28,-25.36,-53,560,-928,31.4,24.8,8.9,31.3,1.0,-31.1,5.73,2.30,-26.1,34.6
2012-08-12 00:50:00,0.0,1.9884,0.0010,387.40,0.33,337.1,28.5,137.95,36.72,24.66,36.49,1.01,-23.61,-25.37,-53,560,-928,31.4,24.9,8.9,31.3,1.0,-31.1,5.73,2.27,-26.1,34.6
2012-08-12 00:51:00,0.0,1.9885,0.0010,387.15,0.34,332.5,32.7,137.95,36.72,24.66,36.50,1.06,-23.93,-25.38,-53,560,-928,31.4,24.9,8.9,31.3,1.0,-31.1,5.73,2.30,-26.1,34.5
2012-08-12 00:52:00,0.0,1.9886,0.0009,387.28,0.37,331.4,28.5,137.95,36.71,24.66,36.49,1.11,-24.23,-25.39,-53,560,-928,31.4,25.0,9.0,31.3,1.0,-31.2,5.73,2.29,-26.2,34.6
2012-08-12 00:53:00,0.0,1.9877,0.0009,387.26,0.30,334.0,23.7,137.95,36.70,24.65,36.49,1.06,-24.51,-25.40,-53,560,-928,31.4,24.8,8.9,31.3,1.0,-31.2,5.73,2.27,-26.2,34.6
2012-08-12 00:54:00,0.0,1.9885,0.0010,387.26,0.38,328.6,27.9,137.95,36.70,24.66,36.49,1.00,-24.78,-25.41,-53,560,-928,31.4,24.9,8.9,31.3,1.0,-31.1,5.73,2.31,-26.2,34.5
2012-08-12 00:55:00,0.0,1.9883,0.0012,387.11,0.36,340.9,28.6,137.95,36.69,24.66,36.49,1.03,-25.03,-25.42,-53,560,-928,31.4,25.0,9.0,31.3,1.0,-31.2,5.73,2.28,-26.2,34.6
2012-08-12 00:56:00,0.0,1.9879,0.0011,387.24,0.39,343.8,27.0,137.95,36.69,24.66,36.50,1.09,-25.27,-25.43,-53,559,-928,31.4,24.7,8.8,31.3,1.0,-31.2,5.73,2.28,-26.2,34.6
2012-08-12 00:57:00,0.0,1.9879,0.0010,387.25,0.38,337.9,25.4,137.95,36.68,24.65,36.49,1.02,-25.30,-25.44,-53,560,-928,31.4,24.8,8.8,31.3,1.0,-31.1,5.73,2.31,-26.2,34.6
2012-08-12 00:58:00,0.0,1.9864,0.0011,387.12,0.33,331.6,26.9,137.95,36.68,24.66,36.49,1.09,-25.09,-25.44,-53,560,-928,31.4,24.7,8.8,31.3,1.0,-31.1,5.73,2.27,-26.2,34.6
2012-08-12 00:59:00,0.0,1.9855,0.0010,387.17,0.34,333.7,28.5,137.95,36.67,24.66,36.49,1.02,-25.24,-25.46,-53,559,-928,31.4,24.7,8.8,31.3,1.0,-31.2,5.73,2.29,-26.2,34.5
2012-08-12 01:00:00,0.0,1.9858,0.0010,387.02,0.35,331.6,27.4,137.95,36.67,24.66,36.49,0.96,-25.41,-25.47,-53,559,-928,31.4,24.7,8.8,31.3,1.0,-31.2,5.73,2.30,-26.2,34.5
2012-08-12 01:01:00,0.0,1.9859,0.0011,386.91,0.32,333.5,26.7,137.95,36.66,24.66,36.50,1.04,-25.14,-25.48,-53,560,-928,31.4,24.8,8.8,31.3,1.0,-31.2,5.73,2.27,-26.2,34.6
2012-08-12 01:02:00,0.0,1.9841,0.0009,387.01,0.37,330.4,31.6,137.95,36.66,24.65,36.50,1.06,-25.21,-25.49,-53,559,-928,31.4,24.7,8.8,31.3,1.0,-31.2,5.73,2.30,-26.2,34.6
2012-08-12 01:03:00,0.0,1.9848,0.0010,386.67,0.40,329.8,28.4,137.95,36.66,24.66,36.50,1.09,-25.41,-25.51,-53,559,-928,31.4,24.9,8.9,31.3,1.0,-31.2,5.73,2.30,-26.2,34.6
2012-08-12 01:04:00,0.0,1.9826,0.0011,386.58,0.36,335.0,30.7,137.95,36.65,24.66,36.50,1.00,-25.28,-25.51,-53,560,-928,31.4,24.7,8.8,31.3,1.0,-31.1,5.73,2.27,-26.2,34.6
2012-08-12 01:05:00,0.0,1.9812,0.0010,386.58,0.34,331.9,25.0,137.95,36.65,24.66,36.50,1.03,-25.19,-25.52,-53,559,-928,31.4,24.7,8.8,31.3,1.0,-31.4,5.73,2.30,-26.2,34.6
2012-08-12 01:06:00,0.0,1.9802,0.0011,386.42,0.39,329.0,28.5,137.95,36.64,24.66,36.50,1.00,-25.37,-25.54,-53,559,-928,31.4,24.7,8.8,31.3,1.0,-31.4,5.73,2.28,-26.2,34.5
2012-08-12 01:07:00,0.0,1.9788,0.0009,386.54,0.37,329.4,24.0,137.95,36.64,24.66,36.50,0.96,-25.42,-25.54,-53,560,-928,31.4,24.6,8.7,31.3,1.0,-31.5,5.73,2.27,-26.2,34.5
2012-08-12 01:08:00,0.0,1.9787,0.0010,386.49,0.36,331.5,22.4,137.95,36.64,24.66,36.50,1.10,-25.19,-25.54,-53,559,-928,31.4,24.5,8.7,31.3,1.0,-31.5,5.73,2.30,-26.2,34.5
2012-08-12 01:09:00,0.0,1.9789,0.0009,386.40,0.47,327.7,29.0,137.95,36.63,24.66,36.50,1.10,-25.34,-25.56,-53,559,-928,31.4,24.7,8.8,31.3,1.0,-31.5,5.73,2.28,-26.2,34.5
2012-08-12 01:10:00,0.0,1.9784,0.0010,386.13,0.33,340.3,27.9,137.95,36.62,24.66,36.50,0.99,-25.51,-25.57,-53,559,-928,31.4,24.7,8.8,31.3,1.0,-31.5,5.73,2.28,-26.2,34.5
2012-08-12 01:11:00,0.0,1.9766,0.0009,386.28,0.37,329.2,25.9,137.95,36.62,24.66,36.50,0.95,-25.24,-25.45,-53,559,-928,31.4,24.7,8.7,31.3,1.0,-31.1,5.73,2.31,-26.2,34.5
2012-08-12 01:12:00,0.0,1.9728,0.0018,386.35,0.43,336.2,29.5,137.95,36.62,24.65,36.50,0.97,-25.31,-24.19,-53,559,-928,31.3,24.3,8.5,31.3,1.0,-30.8,5.73,2.27,-26.2,34.5
2012-08-12 01:13:00,0.0,1.9717,0.0011,386.63,0.35,334.3,30.2,137.95,36.61,24.65,36.50,0.95,-25.45,-22.27,-53,559,-928,31.4,24.2,8.4,31.3,1.2,-29.5,5.73,2.30,-26.2,34.5
2012-08-12 01:14:00,0.0,1.9728,0.0008,386.10,0.32,333.5,32.8,137.95,36.61,24.65,36.50,0.93,-25.54,-20.30,-53,559,-928,31.4,24.4,8.6,31.3,1.3,-28.5,5.73,2.30,-26.2,34.5
2012-08-12 01:15:00,0.0,1.9707,0.0012,386.49,0.38,327.0,25.1,137.95,36.60,24.66,36.50,0.91,-25.59,-18.39,-53,559,-928,31.3,24.1,8.4,31.2,1.3,-28.1,5.73,2.27,-26.2,34.5
2012-08-12 01:16:00,0.0,1.9704,0.0009,386.17,0.35,336.6,28.5,137.95,36.60,24.66,36.50,0.87,-25.62,-16.57,-53,559,-928,31.3,24.4,8.5,31.3,1.3,-28.1,5.73,2.31,-26.2,34.5
2012-08-12 01:17:00,0.0,1.9673,0.0012,386.45,0.42,330.8,23.0,137.95,36.60,24.66,36.50,0.88,-25.64,-14.85,-53,559,-928,31.4,24.1,8.4,31.2,1.3,-28.1,5.73,2.29,-26.2,34.5
2012-08-12 01:18:00,0.0,1.9656,0.0013,386.60,0.43,327.0,28.7,137.95,36.59,24.65,36.50,0.91,-25.65,-13.22,-53,559,-928,31.4,23.9,8.3,31.2,1.3,-28.2,5.73,2.28,-26.2,34.6
2012-08-12 01:19:00,0.0,1.9652,0.0010,386.45,0.34,335.4,25.3,137.95,36.59,24.65,36.50,0.91,-25.65,-11.67,-52,559,-928,31.3,24.0,8.3,31.2,1.3,-28.3,5.73,2.31,-26.2,34.6
2012-08-12 01:20:00,0.0,1.9634,0.0010,386.60,0.34,330.8,26.6,137.95,36.58,24.66,36.50,0.94,-25.65,-10.21,-53,559,-928,31.3,23.8,8.2,31.2,1.3,-28.6,5.73,2.28,-26.2,34.5
2012-08-12 01:21:00,0.0,1.9644,0.0008,386.60,0.39,331.4,25.2,137.95,36.58,24.65,36.50,0.94,-25.65,-8.82,-53,559,-928,31.4,23.8,8.2,31.2,1.2,-28.8,5.73,2.29,-26.1,34.6
2012-08-12 01:22:00,0.0,1.9641,0.0008,386.39,0.36,336.7,29.1,137.95,36.57,24.65,36.51,0.95,-25.64,-7.50,-53,559,-928,31.3,24.0,8.3,31.2,1.2,-28.8,5.73,2.31,-26.1,34.6
2012-08-12 01:23:00,0.0,1.9627,0.0011,386.52,0.36,329.5,26.4,137.95,36.56,24.66,36.49,0.96,-25.63,-6.25,-52,559,-928,31.4,23.9,8.3,31.2,1.2,-29.1,5.73,2.28,-26.1,34.6
2012-08-12 01:24:00,0.0,1.9607,0.0012,386.53,0.46,338.1,28.2,137.95,36.56,24.66,36.50,0.96,-25.62,-5.07,-53,559,-928,31.3,23.8,8.2,31.2,1.2,-29.0,5.73,2.30,-26.1,34.7
2012-08-12 01:25:00,0.0,1.9603,0.0009,386.76,0.32,337.8,30.5,137.95,36.56,24.65,36.50,0.95,-25.61,-3.95,-53,559,-928,31.3,23.6,8.1,31.2,1.2,-29.3,5.73,2.30,-26.1,34.6
2012-08-12 01:26:00,0.0,1.9598,0.0011,386.52,0.40,330.4,27.7,137.95,36.55,24.65,36.50,0.94,-25.61,-2.87,-53,559,-928,31.3,23.7,8.1,31.2,1.2,-29.4,5.73,2.28,-26.0,34.7
2012-08-12 01:27:00,0.0,1.9590,0.0012,386.51,0.32,343.0,28.3,137.95,36.54,24.65,36.51,0.93,-25.60,-1.85,-53,559,-928,31.3,23.7,8.2,31.2,1.2,-29.6,5.73,2.31,-26.0,34.7
2012-08-12 01:28:00,0.0,1.9597,0.0010,386.50,0.39,340.0,28.9,137.95,36.54,24.66,36.50,0.92,-25.59,-0.88,-53,559,-928,31.3,23.8,8.2,31.2,1.2,-29.5,5.73,2.30,-26.0,34.6
2012-08-12 01:29:00,0.0,1.9617,0.0010,386.34,0.32,330.9,30.5,137.95,36.53,24.65,36.50,0.93,-25.58,0.04,-52,559,-928,31.3,23.9,8.3,31.2,1.2,-29.5,5.73,2.28,-26.0,34.6
2012-08-12 01:30:00,0.0,1.9618,0.0009,386.47,0.41,339.3,24.0,137.95,36.53,24.66,36.50,0.92,-25.58,0.89,-53,559,-928,31.3,24.0,8.3,31.2,1.1,-29.8,5.73,2.32,-26.0,34.5
2012-08-12 01:31:00,0.0,1.9614,0.0013,386.30,0.37,340.6,25.8,137.95,36.53,24.65,36.51,0.91,-25.57,1.71,-53,559,-928,31.3,24.0,8.3,31.2,1.1,-29.8,5.73,2.30,-26.0,34.5
2012-08-12 01:32:00,0.0,1.9585,0.0011,386.67,0.38,338.8,25.3,137.95,36.53,24.65,36.50,0.93,-25.56,2.46,-53,559,-928,31.3,23.7,8.1,31.2,1.1,-29.8,5.73,2.29,-26.0,34.5
2012-08-12 01:33:00,0.0,1.9573,0.0011,386.72,0.38,332.5,31.9,137.95,36.52,24.65,36.50,0.95,-25.55,3.04,-53,559,-928,31.3,23.7,8.1,31.2,1.1,-29.9,5.73,2.32,-26.0,34.5
2012-08-12 01:34:00,0.0,1.9576,0.0010,386.53,0.38,337.1,26.1,137.95,36.52,24.65,36.50,0.91,-25.54,3.31,-53,559,-928,31.3,23.7,8.1,31.2,1.1,-30.0,5.73,2.29,-25.9,34.6
2012-08-12 01:35:00,0.0,1.9570,0.0011,386.65,0.33,334.4,27.2,137.95,36.51,24.65,36.50,0.95,-25.53,3.53,-53,559,-928,31.3,23.6,8.0,31.2,1.1,-30.1,5.73,2.30,-26.0,34.5
2012-08-12 01:36:00,0.0,1.9551,0.0011,386.86,0.36,343.4,28.9,137.95,36.51,24.65,36.49,0.93,-25.52,3.92,-52,559,-928,31.3,23.6,8.0,31.2,1.1,-30.1,5.73,2.32,-25.9,34.5
2012-08-12 01:37:00,0.0,1.9582,0.0014,386.60,0.33,336.8,24.8,137.95,36.51,24.65,36.50,0.95,-25.50,4.48,-53,559,-928,31.3,23.8,8.1,31.2,1.1,-30.1,5.73,2.28,-25.9,34.6
2012-08-12 01:38:00,0.0,1.9592,0.0010,386.58,0.32,338.7,26.7,137.95,36.50,24.65,36.50,0.95,-25.49,5.10,-52,559,-928,31.3,23.9,8.2,31.2,1.1,-30.1,5.73,2.31,-25.9,34.6
2012-08-12 01:39:00,0.0,1.9595,0.0009,386.69,0.34,341.7,25.1,137.95,36.50,24.66,36.51,0.96,-25.48,5.68,-52,559,-928,31.3,23.8,8.2,31.2,1.1,-30.0,5.73,2.32,-25.9,34.6
2012-08-12 01:40:00,0.0,1.9605,0.0010,386.71,0.36,346.2,25.5,137.95,36.50,24.65,36.50,0.95,-25.47,6.23,-52,559,-928,31.3,24.0,8.2,31.2,1.1,-30.1,5.73,2.29,-25.9,34.6
2012-08-12 01:41:00,0.0,1.9610,0.0011,386.44,0.38,335.3,28.1,137.95,36.49,24.65,36.50,0.95,-25.46,6.76,-53,559,-928,31.3,24.1,8.3,31.2,1.1,-30.1,5.73,2.32,-25.9,34.7
2012-08-12 01:42:00,0.0,1.9620,0.0009,386.26,0.46,333.6,27.4,137.95,36.49,24.65,36.50,0.96,-25.45,7.27,-52,559,-928,31.3,24.1,8.4,31.2,1.1,-30.0,5.73,2.31,-25.9,34.7
2012-08-12 01:43:00,0.0,1.9623,0.0010,386.37,0.29,345.8,27.5,137.95,36.49,24.66,36.50,0.95,-25.44,7.75,-53,559,-928,31.3,24.2,8.4,31.2,1.1,-30.2,5.73,2.29,-25.8,34.7
2012-08-12 01:44:00,0.0,1.9627,0.0010,386.34,0.37,338.8,27.6,137.95,36.48,24.66,36.50,0.96,-25.43,8.22,-53,559,-928,31.3,24.3,8.5,31.2,1.1,-30.1,5.73,2.33,-25.8,34.7
2012-08-12 01:45:00,0.0,1.9639,0.0009,386.37,0.38,336.3,28.6,137.95,36.48,24.65,36.50,0.96,-25.42,8.68,-52,559,-928,31.3,24.3,8.4,31.2,1.1,-30.1,5.73,2.29,-25.8,34.7
2012-08-12 01:46:00,0.0,1.9641,0.0011,386.67,0.32,340.3,25.2,137.95,36.47,24.66,36.50,0.96,-25.42,9.11,-52,559,-928,31.3,24.1,8.3,31.2,1.1,-30.2,5.73,2.29,-25.8,34.7
2012-08-12 01:47:00,0.0,1.9627,0.0014,386.78,0.33,343.3,23.7,137.95,36.46,24.66,36.50,0.96,-25.41,9.53,-53,559,-928,31.3,23.9,8.2,31.2,1.1,-30.1,5.73,2.33,-25.8,34.6
2012-08-12 01:48:00,0.0,1.9634,0.0015,386.27,0.32,340.5,27.8,137.95,36.46,24.66,36.51,0.96,-25.40,9.94,-52,559,-927,31.3,24.2,8.4,31.2,1.1,-30.1,5.73,2.29,-25.9,34.6
2012-08-12 01:49:00,0.0,1.9639,0.0011,386.33,0.26,336.1,26.0,137.95,36.45,24.65,36.51,0.96,-25.40,10.33,-52,559,-928,31.2,24.3,8.4,31.2,1.1,-30.1,5.73,2.30,-25.9,34.5
2012-08-12 01:50:00,0.0,1.9638,0.0010,386.34,0.34,341.5,25.1,137.96,36.45,24.66,36.50,0.96,-25.40,10.71,-52,559,-928,31.2,24.3,8.4,31.2,1.1,-30.2,5.73,2.32,-25.9,34.5
2012-08-12 01:51:00,0.0,1.9639,0.0010,386.53,0.38,339.3,25.8,137.95,36.44,24.66,36.50,0.95,-25.39,11.08,-53,559,-928,31.2,24.1,8.3,31.2,1.1,-30.1,5.73,2.29,-25.9,34.5
2012-08-12 01:52:00,0.0,1.9645,0.0009,386.61,0.35,336.8,24.0,137.95,36.44,24.65,36.50,0.97,-25.38,11.44,-52,559,-928,31.2,24.1,8.3,31.2,1.1,-30.3,5.73,2.31,-25.9,34.5
2012-08-12 01:53:00,0.0,1.9658,0.0012,386.53,0.40,336.7,30.6,137.96,36.43,24.65,36.50,0.96,-25.38,11.78,-52,559,-928,31.2,24.3,8.4,31.1,1.1,-30.2,5.73,2.32,-25.9,34.4
2012-08-12 01:54:00,0.0,1.9652,0.0011,386.53,0.39,338.4,22.8,137.95,36.43,24.66,36.51,0.96,-25.37,12.12,-53,559,-928,31.2,24.2,8.3,31.1,1.1,-30.3,5.73,2.29,-25.9,34.4
2012-08-12 01:55:00,0.0,1.9645,0.0010,386.49,0.30,341.4,26.9,137.96,36.42,24.65,36.50,0.97,-25.37,12.44,-52,559,-928,31.2,24.2,8.3,31.1,1.1,-30.4,5.73,2.32,-25.9,34.5
2012-08-12 01:56:00,0.0,1.9639,0.0010,386.57,0.39,335.0,26.0,137.95,36.42,24.65,36.51,0.96,-25.36,12.75,-52,559,-928,31.2,24.1,8.3,31.1,1.1,-30.4,5.73,2.31,-25.9,34.4
2012-08-12 01:57:00,0.0,1.9651,0.0010,386.67,0.40,334.0,26.9,137.95,36.42,24.66,36.50,0.96,-25.36,13.05,-52,559,-928,31.2,24.2,8.3,31.1,1.1,-30.4,5.73,2.29,-25.9,34.4
2012-08-12 01:58:00,0.0,1.9666,0.0011,386.54,0.33,342.7,27.8,137.95,36.41,24.66,36.50,0.95,-25.36,13.33,-52,559,-928,31.2,24.3,8.4,31.1,1.1,-30.4,5.73,2.33,-25.9,34.4
2012-08-12 01:59:00,0.0,1.9675,0.0011,386.36,0.40,326.5,26.3,137.96,36.41,24.66,36.50,0.96,-25.35,13.61,-52,559,-928,31.2,24.5,8.5,31.1,1.1,-30.4,5.73,2.30,-25.9,34.4
2012-08-12 02:00:00,0.0,1.9666,0.0010,386.23,0.53,332.8,29.7,137.95,36.40,24.66,36.51,0.96,-25.34,13.87,-53,559,-928,31.2,24.3,8.4,31.1,1.1,-30.5,5.73,2.29,-25.9,34.4
2012-08-12 02:01:00,0.0,1.9679,0.0012,386.66,0.38,332.5,26.5,137.95,36.40,24.65,36.51,0.96,-25.34,14.12,-52,559,-928,31.1,24.2,8.3,31.1,1.1,-30.4,5.73,2.33,-25.9,34.3
2012-08-12 02:02:00,0.0,1.9695,0.0011,386.36,0.32,333.2,28.9,137.95,36.39,24.66,36.50,0.96,-25.34,14.37,-52,559,-927,31.2,24.4,8.4,31.1,1.1,-30.4,5.73,2.30,-25.9,34.4
2012-08-12 02:03:00,0.0,1.9706,0.0011,386.30,0.34,326.4,30.6,137.95,36.39,24.66,36.51,0.96,-25.34,14.60,-52,559,-928,31.2,24.4,8.4,31.1,1.1,-30.4,5.73,2.31,-25.9,34.4
2012-08-12 02:04:00,0.0,1.9718,0.0008,386.19,0.31,334.6,25.7,137.95,36.38,24.65,36.51,0.96,-25.34,14.83,-52,559,-928,31.1,24.5,8.5,31.1,1.1,-30.4,5.73,2.33,-25.9,34.3
2012-08-12 02:05:00,0.0,1.9720,0.0011,386.31,0.39,337.2,29.9,137.95,36.38,24.66,36.50,0.96,-25.33,15.04,-52,559,-928,31.1,24.6,8.5,31.1,1.1,-30.4,5.73,2.29,-25.9,34.3
2012-08-12 02:06:00,0.0,1.9712,0.0010,386.43,0.35,331.7,25.5,137.95,36.37,24.66,36.50,0.96,-25.33,15.25,-52,559,-928,31.1,24.5,8.5,31.1,1.1,-30.4,5.73,2.31,-25.9,34.3
2012-08-12 02:07:00,0.0,1.9714,0.0011,386.26,0.36,336.3,26.8,137.96,36.37,24.65,36.50,0.96,-25.33,15.44,-52,559,-928,31.1,24.7,8.6,31.1,1.1,-30.4,5.73,2.32,-25.9,34.3
2012-08-12 02:08:00,0.0,1.9696,0.0009,386.47,0.35,333.8,32.7,137.95,36.36,24.66,36.50,0.95,-25.33,15.63,-52,559,-927,31.1,24.5,8.5,31.1,1.1,-30.4,5.73,2.29,-25.9,34.3
2012-08-12 02:09:00,0.0,1.9691,0.0009,386.37,0.36,330.7,28.1,137.95,36.36,24.65,36.50,0.97,-25.32,15.80,-52,559,-928,31.1,24.4,8.4,31.0,1.1,-30.4,5.73,2.33,-25.9,34.4
2012-08-12 02:10:00,0.0,1.9691,0.0009,386.14,0.38,322.2,24.5,137.96,36.35,24.66,36.50,0.98,-25.31,15.98,-52,559,-928,31.1,24.6,8.5,31.0,1.1,-30.4,5.73,2.32,-25.9,34.4
2012-08-12 02:11:00,0.0,1.9685,0.0010,385.88,0.31,329.4,31.6,137.96,36.35,24.66,36.50,0.97,-25.31,16.14,-52,559,-928,31.1,24.7,8.6,31.0,1.1,-30.4,5.73,2.29,-25.9,34.4
2012-08-12 02:12:00,0.0,1.9689,0.0009,385.98,0.45,335.6,27.0,137.96,36.34,24.66,36.50,0.96,-25.30,16.30,-52,559,-928,31.1,24.6,8.5,31.0,1.1,-30.3,5.73,2.33,-25.9,34.3
2012-08-12 02:13:00,0.0,1.9688,0.0009,386.06,0.34,331.3,26.8,137.95,36.34,24.65,36.50,0.96,-25.30,16.45,-52,559,-927,31.1,24.5,8.5,31.0,1.1,-30.4,5.73,2.31,-25.9,34.3
2012-08-12 02:14:00,0.0,1.9693,0.0011,385.94,0.35,332.0,27.6,137.95,36.33,24.65,36.50,0.97,-25.30,16.60,-52,558,-927,31.1,24.6,8.5,31.0,1.1,-30.4,5.73,2.29,-25.9,34.4
2012-08-12 02:15:00,0.0,1.9680,0.0009,386.11,0.35,324.2,30.3,137.95,36.33,24.66,36.51,0.95,-25.30,16.73,-52,559,-927,31.1,24.5,8.4,31.0,1.1,-30.4,5.73,2.33,-25.9,34.4
2012-08-12 02:16:00,0.0,1.9676,0.0011,386.20,0.27,333.5,29.4,137.96,36.33,24.66,36.50,0.96,-25.29,16.86,-52,559,-927,31.1,24.5,8.4,31.0,1.1,-30.5,5.73,2.30,-25.9,34.3
2012-08-12 02:17:00,0.0,1.9666,0.0010,386.35,0.31,331.9,26.1,137.96,36.33,24.66,36.50,0.96,-25.28,16.99,-52,559,-927,31.1,24.5,8.4,31.0,1.1,-30.4,5.73,2.30,-25.9,34.3
2012-08-12 02:18:00,0.0,1.9662,0.0010,386.41,0.36,330.4,27.5,137.96,36.33,24.65,36.51,0.98,-25.28,17.11,-52,559,-928,31.1,24.4,8.3,31.0,1.1,-30.4,5.73,2.33,-25.9,34.3
2012-08-12 02:19:00,0.0,1.9656,0.0011,386.09,0.37,333.3,26.5,137.96,36.32,24.66,36.51,0.95,-25.28,17.23,-52,558,-927,31.1,24.6,8.5,31.0,1.1,-30.4,5.73,2.30,-25.9,34.3
2012-08-12 02:20:00,0.0,1.9665,0.0012,385.76,0.36,330.5,28.8,137.96,36.32,24.66,36.50,0.97,-25.28,17.34,-52,558,-927,31.1,24.8,8.6,31.0,1.1,-30.5,5.73,2.31,-25.9,34.3